User: anonymous   Login
Location: Mat�lon
(46.2791°N, 7.1028°E)
Time: 01:11:36
(UTC+00:00)
Language:

FREGAT/IRIS - Orbit

View from above orbital plane
View from above orbital plane
View from above satellite
View from above satellite

Ground track
Ground track

The orbit data is extracted from the following two-line orbital elements,

1 35867U 09049C   20336.88051531  .00093935  51822-5  29050-3 0  9997
2 35867  96.9014  17.1248 0003816  84.5730  88.2687 15.91769361632590
Epoch (UTC): 01 December 2020 21:07:56
Eccentricity: 0.0003816
inclination: 96.9014°
perigee height: 295 km
apogee height: 300 km
right ascension of ascending node: 17.1248°
argument of perigee: 84.5730°
revolutions per day: 15.91769361
mean anomaly at epoch: 88.2687°
orbit number at epoch: 63259

The dashed part of the orbit path shows where the satellite is in the earth's shadow,  

DLR